Temperature
12 12 11 11 10 10 10 10 9 9 9 9 9 9 9 10 10 10 10 10 10 10 10 11 11 11 11 12 12 12 12 13 13 14 15 15 15 16 16 16 16 16 16
11 11 11 10 10 10 10 9 9 9 9 9 9 9 9 9 9 9 9 9 10 10 10 10 10 11 11 11 11 12 12 12 13 13 14 15 15 15 15 15 15 15 15
11 11 10 10 10 10 9 9 9 9 9 9 9 8 9 9 9 9 9 9 9 9 10 10 10 10 10 11 11 11 11 12 12 13 13 14 14 14 15 15 15 15 15
11 10 10 10 10 9 9 9 9 9 9 8 8 8 8 8 8 9 9 9 9 9 9 9 10 10 10 10 11 11 11 11 12 12 13 13 13 13 14 14 14 14 14
11 10 10 10 9 9 9 9 9 8 8 8 8 8 8 8 8 8 8 8 8 9 9 9 9 10 10 10 10 11 11 11 11 12 12 12 12 13 13 13 13 13 13
10 10 10 9 9 9 9 8 8 8 8 8 8 8 8 8 8 8 8 8 8 8 8 9 9 9 9 10 10 10 10 11 11 11 12 12 12 12 13 13 13 12 12
10 10 9 9 9 9 8 8 8 8 8 8 8 8 8 8 8 8 8 7 7 8 8 8 8 9 9 9 10 10 10 10 11 11 11 12 12 12 12 12 12 13 13
10 9 9 9 9 8 8 8 8 8 8 8 8 8 8 8 8 8 7 7 7 7 8 8 8 8 8 9 9 9 10 10 10 10 11 11 11 12 12 12 12 12 12
10 9 9 9 8 8 8 8 8 8 8 8 8 8 8 8 8 7 7 7 7 7 7 8 8 8 8 9 9 9 9 10 10 10 10 11 11 11 11 11 12 11 11
9 9 9 8 8 8 8 8 8 8 8 8 8 8 7 7 7 7 7 7 7 7 7 7 8 8 8 8 9 9 9 10 10 10 10 10 10 11 11 11 12 12 12
9 9 9 9 8 8 8 8 8 8 8 8 8 8 7 7 7 7 7 6 7 7 7 7 7 8 8 8 8 9 9 9 10 10 10 10 10 10 11 11 11 12 12
9 9 9 9 8 8 8 8 8 8 8 7 7 7 7 7 7 7 6 6 6 6 7 7 7 7 8 8 8 8 9 9 9 9 9 10 10 10 11 11 11 12 12
9 9 9 9 9 8 8 8 8 8 7 7 7 7 7 7 6 6 6 6 6 6 6 7 7 7 7 8 8 8 9 9 9 9 9 10 10 10 10 11 11 11 11
9 9 9 9 9 9 8 8 8 8 7 7 7 7 6 6 6 6 6 6 6 6 6 6 7 7 7 8 8 8 8 9 9 9 9 9 10 10 10 11 11 11 11
9 9 9 9 9 9 9 8 8 8 7 7 7 7 6 6 6 6 6 6 6 6 6 6 7 7 7 7 8 8 8 8 9 9 9 9 10 10 10 10 10 11 11
9 9 9 9 9 9 9 9 8 8 8 7 7 7 6 6 6 6 6 6 6 6 6 6 7 7 7 8 8 8 8 8 9 9 9 9 9 10 10 10 10 10 11
9 9 9 9 9 9 9 8 8 8 8 8 7 7 6 6 6 6 6 6 6 6 6 6 7 7 7 7 8 8 8 8 9 9 9 9 9 9 10 10 10 10 10
9 9 9 9 9 9 9 8 8 8 8 8 8 7 7 6 6 6 6 6 6 6 6 6 7 7 7 7 8 8 8 8 9 9 9 9 9 9 9 10 10 10 10
10 10 9 9 9 9 9 9 9 8 8 8 8 7 7 7 7 6 6 6 6 7 7 7 7 7 7 8 8 8 8 9 9 9 9 9 9 9 9 9 10 10 10
10 10 9 9 9 9 9 9 9 8 8 8 8 8 7 7 7 7 7 7 7 7 7 7 7 8 8 8 8 8 9 9 9 9 9 9 9 9 9 10 10 10 10
10 10 10 10 9 9 9 9 9 8 8 8 8 8 8 8 7 7 7 7 7 7 7 7 8 8 8 8 8 9 9 9 9 9 9 9 9 9 9 10 10 10 10
9 10 10 10 9 9 9 9 9 9 8 8 8 8 8 8 8 7 7 8 8 8 8 8 8 8 8 8 9 9 9 9 9 9 9 9 9 9 9 9 9 9 9
9 9 10 10 9 9 9 9 9 9 8 8 8 8 8 8 8 8 8 8 8 8 8 8 8 8 8 9 9 9 9 9 9 9 9 9 9 9 9 9 9 9 9
9 9 9 9 10 10 9 9 9 9 9 8 8 8 8 8 8 8 8 8 8 8 8 8 8 8 8 9 9 9 9 9 9 9 9 9 9 9 9 9 9 9 9
9 9 9 9 9 9 9 9 9 9 9 9 8 8 8 8 8 8 8 8 8 8 8 8 8 8 8 9 9 9 9 9 9 9 9 9 9 9 9 9 9 9 9
9 9 9 9 9 9 9 9 9 9 9 9 9 8 8 8 8 8 8 8 8 8 8 8 8 8 8 8 8 8 9 9 9 9 9 9 9 9 9 9 9 9 9
Wind_Speed
4 4 5 5 6 6 6 7 7 7 7 8 8 8 8 8 7 7 7 7 7 7 7 7 8 6 5 4 4 4 5 4 4 3 1 1 2 6 6 7 9 8 7
5 5 5 6 6 6 7 8 8 8 8 8 8 8 9 9 8 8 8 8 8 8 8 8 8 7 7 5 4 5 5 5 5 4 2 2 2 6 7 8 6 7 7
5 5 6 7 7 8 8 8 8 8 9 8 8 9 9 9 9 9 9 9 9 9 9 9 9 8 8 6 6 5 5 5 5 4 3 2 2 5 6 6 7 5 6
5 5 7 8 8 8 9 9 9 9 9 9 9 9 9 10 10 10 9 9 9 9 9 9 9 9 10 9 7 7 6 5 5 4 3 4 4 5 6 7 6 4 4
5 7 8 8 8 8 8 9 9 9 10 9 9 9 9 9 10 10 10 10 9 9 9 9 10 12 14 11 8 7 6 5 5 5 5 5 6 7 7 5 7 6 4
6 7 8 8 8 8 9 9 9 9 9 9 9 10 10 10 13 15 12 9 8 9 9 8 9 11 13 16 15 13 11 8 7 6 6 7 7 7 6 8 8 7 4
7 8 8 8 8 9 10 9 9 9 9 9 9 9 10 12 16 17 18 11 9 9 9 8 9 9 10 9 12 15 14 14 11 8 8 7 7 8 10 11 10 8 4
7 8 8 8 9 9 9 10 10 9 9 9 10 10 10 12 16 16 17 12 10 10 10 10 10 9 9 8 8 8 9 9 11 8 7 7 6 7 11 11 10 7 5
8 8 9 9 10 10 10 11 10 9 9 9 9 10 10 12 15 16 15 8 8 10 11 11 10 10 12 13 9 8 8 7 9 11 10 9 9 10 10 10 11 11 7
8 8 9 9 10 11 11 11 10 9 10 9 9 9 10 11 13 14 13 6 8 8 8 9 13 13 13 14 10 9 9 8 7 7 7 8 8 9 13 13 13 13 8
8 8 9 9 10 10 9 9 9 9 9 9 9 9 8 10 11 12 11 6 7 7 7 7 8 14 15 15 13 9 11 9 7 7 7 6 6 6 8 9 10 11 11
8 8 9 10 10 10 9 10 9 8 8 8 8 8 6 7 7 8 10 9 8 7 6 6 7 13 14 14 11 11 13 10 5 5 6 6 7 7 7 9 9 8 7
8 9 10 11 10 9 9 10 9 8 6 6 6 6 6 6 5 7 8 7 7 5 5 7 8 11 11 9 11 13 11 7 6 5 6 6 6 7 7 7 8 7 7
8 9 9 10 11 10 8 7 7 7 7 6 6 6 6 6 5 4 4 3 3 3 2 2 4 7 7 7 7 7 6 7 6 6 6 5 5 5 6 7 7 8 7
8 9 9 9 9 10 9 7 7 7 7 6 6 5 5 6 6 7 4 3 2 3 3 2 2 3 4 4 4 4 4 5 5 5 5 4 4 5 5 6 7 8 7
8 8 8 8 8 8 8 9 9 9 10 9 9 7 6 8 10 8 6 5 4 6 4 3 3 4 5 5 6 5 5 6 6 5 5 5 5 6 6 6 7 8 9
8 9 8 8 8 8 7 7 9 9 8 6 7 8 8 8 8 7 5 4 2 5 3 3 4 4 4 5 5 6 6 6 5 5 5 5 5 5 6 7 8 9 8
8 9 9 8 8 8 7 7 6 6 7 5 5 7 8 7 7 6 4 2 0 2 3 4 4 4 5 5 5 5 5 5 5 5 5 6 6 6 6 7 8 9 9
8 7 7 8 7 7 7 6 6 6 6 5 4 4 5 5 6 5 3 2 3 3 4 4 4 5 5 5 5 5 5 5 6 6 6 6 6 6 6 7 8 11 9
7 12 11 8 7 7 6 6 6 5 6 5 5 4 2 1 2 3 3 3 4 4 4 4 4 4 5 5 5 5 5 5 6 6 6 6 7 7 8 9 9 10 9
7 9 12 9 7 6 6 6 6 5 5 5 5 4 4 3 4 5 4 4 4 5 4 4 4 4 4 4 5 6 6 5 6 6 7 7 7 7 7 9 9 9 9
6 7 7 8 7 6 6 6 5 5 5 6 5 4 5 3 3 3 4 4 4 4 4 4 4 4 4 5 5 6 6 6 6 6 7 7 7 7 8 9 10 10 10
6 7 8 7 6 7 7 6 5 5 5 5 5 4 3 3 3 3 3 3 3 3 3 3 3 3 3 4 5 6 6 7 7 7 7 7 8 8 8 9 11 11 11
6 7 7 7 5 5 5 6 6 6 5 5 5 4 4 3 3 3 3 2 2 1 1 1 2 2 2 2 3 4 4 5 6 7 9 9 9 9 9 9 10 12 12
6 6 6 5 5 5 5 5 6 6 6 5 5 4 4 3 3 2 2 2 1 1 1 1 0 0 1 2 2 2 4 5 6 6 7 8 9 10 10 10 10 11 10
5 5 5 5 5 5 5 5 6 6 5 5 5 4 4 4 4 3 2 1 1 1 2 2 2 2 2 2 3 3 4 5 6 7 6 7 8 9 10 9 12 11 12
Wind_Direction
285 280 285 282 279 277 272 270 270 270 271 272 273 276 276 274 268 260 255 257 253 253 249 240 240 235 233 226 218 212 205 198 231 248 229 136 126 134 124 115 113 111 117
274 280 281 280 280 279 274 271 268 267 266 263 264 266 269 272 265 258 259 261 249 250 249 241 241 238 231 225 216 220 214 204 211 231 210 170 137 145 139 129 119 113 107
277 282 285 285 282 277 274 273 270 266 266 263 260 260 262 263 262 258 252 252 246 242 242 238 237 229 232 225 216 218 219 216 201 202 205 180 140 143 138 125 116 106 104
279 282 284 281 277 275 275 274 272 268 266 265 261 257 256 257 257 257 255 252 249 245 239 235 233 224 224 223 221 216 214 210 198 194 193 180 160 149 145 142 132 116 112
284 284 282 281 281 282 282 281 277 273 273 265 264 263 260 258 260 255 251 256 250 249 246 237 235 233 226 217 217 210 203 202 196 192 195 186 175 165 165 155 146 132 102
283 284 286 289 290 289 287 284 281 277 273 270 266 265 264 269 268 264 258 254 246 243 246 243 243 245 240 225 219 210 198 196 197 193 198 192 191 176 164 158 150 152 150
289 290 292 292 291 289 292 292 284 280 276 273 269 265 263 262 262 263 262 256 244 240 236 234 246 244 231 221 220 218 212 206 198 192 196 200 191 184 173 168 169 166 152
296 296 298 298 296 293 291 287 284 280 276 273 272 268 266 268 264 261 260 256 245 240 234 227 226 233 229 213 208 207 209 210 206 200 196 198 192 186 183 175 164 145 116
301 300 301 301 300 299 296 292 288 285 282 276 273 270 269 271 268 264 260 253 243 240 236 231 223 222 222 209 196 198 205 216 216 205 199 197 190 188 180 168 163 162 156
297 297 299 299 299 299 294 290 288 283 280 282 281 276 271 271 272 271 265 246 239 239 237 235 228 220 216 204 192 191 201 207 197 198 202 204 199 196 190 186 178 174 163
293 299 302 300 298 295 291 289 290 288 287 285 285 285 280 276 278 277 273 240 229 231 231 231 228 221 214 206 194 192 200 192 185 185 189 192 190 194 197 194 187 179 173
297 301 302 300 302 306 298 297 296 292 291 291 291 294 291 290 286 288 280 252 229 221 228 228 221 216 210 202 196 198 191 179 168 172 183 191 195 197 198 195 193 188 175
305 304 303 303 302 297 294 296 301 298 290 291 293 295 299 301 304 309 302 273 238 221 228 226 214 207 198 195 196 189 179 170 165 175 191 197 197 194 187 187 185 170 143
304 304 304 305 306 305 300 294 295 296 292 290 290 292 297 301 306 318 318 296 260 235 235 218 189 175 167 166 168 174 172 171 172 180 189 191 178 178 187 179 175 167 150
304 303 305 303 302 305 302 295 291 282 269 269 275 276 288 298 299 304 294 285 243 216 170 139 132 140 153 158 157 161 170 170 174 173 177 176 177 182 186 175 167 163 162
307 308 305 306 306 303 305 310 301 290 288 267 254 258 267 272 296 306 305 293 253 201 176 170 175 172 175 174 172 177 183 189 185 177 178 180 182 185 182 174 172 171 166
300 302 303 302 304 305 306 307 312 315 306 283 267 262 261 281 292 299 315 323 261 184 182 188 187 192 192 184 182 184 190 194 181 177 183 185 180 177 175 177 175 172 168
302 303 304 299 301 302 302 300 298 303 311 310 285 265 265 273 286 296 311 332 254 200 202 201 206 204 199 195 191 193 194 184 181 186 189 186 179 176 176 177 174 171 167
304 303 304 303 302 301 303 304 302 303 302 299 297 291 264 264 279 284 281 250 238 228 220 217 215 206 201 196 193 190 188 185 186 186 188 186 181 176 178 176 170 166 162
306 308 313 306 305 308 310 310 309 307 309 308 297 285 271 251 274 270 245 245 249 246 235 227 224 214 203 197 193 189 189 190 186 186 186 185 182 179 178 172 170 172 171
306 311 314 313 306 304 306 307 306 306 307 308 300 283 260 249 266 265 254 245 241 241 235 230 226 216 207 197 191 189 189 195 189 183 181 182 179 177 177 174 174 174 169
303 304 305 303 304 307 309 306 305 307 309 310 306 304 295 277 277 274 266 262 250 238 232 227 225 217 204 198 191 186 186 189 189 184 180 178 178 175 172 172 173 172 170
304 305 306 305 304 313 321 321 318 315 317 314 312 309 304 298 295 288 280 278 269 255 245 227 225 230 223 202 191 186 190 195 195 186 178 176 176 175 173 173 172 171 172
301 302 306 309 311 317 320 323 327 327 327 322 320 318 311 306 309 307 300 296 295 285 264 232 216 218 216 200 193 191 196 195 184 184 177 175 174 173 172 173 174 175 174
301 307 313 313 316 319 320 324 329 333 336 332 330 330 329 326 326 323 321 322 341 8 21 45 99 167 186 187 176 172 178 181 179 172 172 172 171 171 170 172 173 170 168
310 316 323 325 326 327 328 329 330 335 340 344 346 348 346 343 344 344 342 345 20 31 30 36 68 93 90 82 97 121 143 154 160 163 165 164 167 169 167 172 171 170 168
Height
1496 1493 1491 1488 1485 1482 1479 1476 1473 1470 1468 1466 1464 1462 1460 1459 1458 1457 1456 1456 1456 1456 1457 1457 1458 1459 1459 1459 1459 1460 1461 1463 1465 1466 1469 1472 1475 1478 1481 1484 1487 1490 1492
1492 1489 1486 1482 1479 1476 1473 1470 1467 1465 1462 1460 1458 1456 1454 1452 1451 1450 1449 1449 1449 1449 1450 1451 1452 1453 1454 1454 1455 1455 1456 1458 1460 1462 1465 1468 1471 1474 1477 1481 1484 1486 1489
1487 1484 1481 1477 1474 1471 1468 1465 1462 1459 1456 1454 1452 1450 1448 1446 1445 1443 1443 1442 1442 1442 1443 1444 1445 1446 1447 1449 1450 1450 1452 1453 1455 1458 1460 1464 1467 1471 1474 1477 1481 1483 1486
1483 1479 1476 1472 1469 1465 1462 1459 1456 1453 1450 1448 1445 1443 1441 1439 1438 1436 1435 1435 1434 1435 1435 1436 1438 1439 1441 1443 1444 1445 1447 1448 1450 1453 1456 1459 1463 1467 1470 1474 1477 1480 1483
1478 1475 1471 1467 1464 1460 1456 1453 1450 1447 1444 1441 1439 1436 1434 1432 1430 1429 1428 1427 1427 1427 1428 1429 1430 1432 1434 1436 1438 1440 1441 1443 1445 1448 1451 1454 1458 1462 1466 1470 1474 1477 1481
1473 1470 1466 1462 1458 1454 1450 1447 1443 1440 1437 1435 1432 1429 1427 1425 1423 1422 1421 1420 1419 1419 1420 1421 1423 1425 1427 1429 1431 1434 1436 1438 1440 1443 1446 1449 1453 1457 1462 1466 1470 1474 1477
1469 1465 1461 1457 1453 1449 1444 1440 1437 1434 1431 1428 1425 1422 1419 1417 1416 1414 1413 1412 1411 1411 1412 1413 1415 1417 1420 1422 1425 1428 1430 1432 1436 1439 1441 1444 1448 1452 1457 1461 1466 1470 1474
1465 1461 1456 1452 1447 1443 1439 1435 1431 1428 1424 1421 1418 1415 1412 1409 1408 1406 1404 1403 1402 1402 1403 1405 1407 1409 1413 1416 1419 1421 1424 1427 1430 1433 1436 1440 1444 1447 1452 1456 1461 1467 1472
1460 1456 1452 1447 1442 1437 1433 1429 1425 1422 1418 1414 1411 1408 1405 1402 1400 1398 1396 1395 1394 1394 1395 1397 1399 1401 1405 1409 1412 1415 1418 1422 1425 1428 1431 1435 1438 1442 1446 1452 1456 1462 1466
1456 1452 1447 1442 1437 1432 1428 1424 1420 1416 1412 1409 1405 1402 1398 1395 1392 1390 1388 1387 1386 1386 1387 1389 1391 1394 1398 1401 1405 1409 1412 1416 1420 1423 1426 1429 1433 1437 1441 1445 1450 1455 1460
1452 1448 1443 1438 1433 1428 1424 1420 1416 1411 1407 1403 1399 1396 1392 1389 1386 1383 1381 1380 1379 1379 1380 1381 1384 1387 1391 1395 1399 1403 1407 1411 1415 1419 1422 1425 1428 1431 1435 1440 1445 1449 1454
1449 1444 1439 1434 1429 1425 1420 1416 1411 1407 1402 1398 1394 1390 1387 1383 1380 1378 1376 1374 1373 1373 1374 1376 1379 1382 1385 1389 1393 1398 1402 1407 1410 1414 1417 1420 1423 1426 1430 1435 1440 1445 1450
1445 1440 1435 1431 1426 1421 1417 1412 1407 1403 1398 1394 1390 1386 1382 1379 1376 1374 1371 1370 1369 1369 1370 1372 1374 1377 1381 1385 1389 1394 1398 1402 1406 1409 1412 1415 1419 1422 1427 1431 1435 1440 1446
1442 1437 1432 1427 1422 1418 1413 1409 1404 1399 1394 1390 1386 1383 1379 1376 1373 1370 1368 1367 1367 1367 1367 1369 1371 1374 1377 1382 1386 1390 1394 1399 1403 1406 1409 1412 1415 1419 1422 1426 1431 1436 1441
1438 1434 1429 1425 1420 1415 1411 1406 1401 1397 1392 1388 1384 1380 1376 1373 1371 1369 1367 1365 1365 1365 1366 1368 1369 1372 1375 1378 1382 1387 1391 1395 1399 1403 1406 1409 1412 1415 1418 1423 1427 1432 1436
1435 1431 1426 1422 1417 1413 1408 1403 1399 1394 1390 1385 1382 1378 1375 1372 1369 1367 1366 1365 1364 1365 1366 1367 1369 1371 1373 1376 1380 1384 1388 1392 1396 1399 1403 1406 1409 1412 1415 1419 1423 1428 1433
1432 1428 1424 1419 1415 1410 1406 1401 1396 1392 1388 1383 1379 1376 1373 1370 1368 1366 1365 1365 1365 1365 1365 1366 1368 1370 1372 1375 1378 1382 1385 1389 1393 1396 1400 1403 1406 1409 1412 1416 1420 1424 1429
1430 1426 1422 1417 1413 1409 1404 1399 1394 1390 1385 1381 1378 1375 1372 1370 1368 1366 1365 1365 1364 1364 1365 1366 1367 1369 1371 1374 1377 1380 1383 1387 1390 1393 1397 1400 1403 1406 1409 1412 1416 1420 1425
1427 1423 1419 1415 1411 1407 1403 1398 1393 1389 1384 1380 1377 1374 1371 1369 1367 1365 1364 1364 1363 1364 1365 1366 1367 1368 1370 1373 1375 1378 1381 1384 1387 1390 1393 1396 1400 1403 1406 1409 1413 1418 1422
1424 1421 1417 1413 1409 1405 1401 1396 1392 1388 1384 1380 1376 1373 1371 1368 1366 1365 1364 1363 1363 1363 1364 1365 1366 1367 1369 1371 1374 1376 1379 1382 1384 1387 1390 1393 1397 1400 1403 1406 1410 1414 1419
1422 1418 1415 1412 1408 1404 1400 1395 1391 1387 1383 1379 1376 1373 1371 1368 1366 1364 1363 1362 1362 1362 1363 1364 1365 1366 1368 1370 1372 1374 1377 1379 1382 1384 1387 1390 1393 1396 1400 1403 1408 1412 1417
1419 1416 1413 1410 1406 1403 1399 1395 1390 1386 1382 1379 1376 1373 1371 1368 1366 1364 1363 1362 1362 1362 1362 1363 1364 1365 1367 1368 1370 1372 1375 1377 1379 1381 1384 1387 1389 1393 1396 1400 1405 1409 1414
1417 1414 1411 1408 1405 1402 1398 1394 1390 1386 1382 1378 1375 1373 1370 1368 1366 1364 1363 1362 1361 1361 1361 1362 1363 1364 1365 1367 1369 1370 1372 1374 1376 1378 1380 1383 1386 1389 1393 1397 1401 1405 1410
1415 1412 1409 1407 1404 1400 1397 1393 1390 1386 1381 1378 1375 1372 1369 1367 1365 1364 1363 1362 1361 1361 1361 1361 1362 1363 1364 1365 1366 1367 1369 1371 1373 1374 1377 1379 1382 1385 1389 1393 1398 1402 1407
1412 1410 1407 1405 1402 1399 1396 1393 1390 1386 1382 1378 1375 1372 1369 1367 1365 1363 1362 1361 1361 1361 1360 1360 1361 1361 1362 1363 1364 1365 1366 1367 1369 1371 1373 1376 1379 1382 1386 1390 1394 1399 1404
1409 1408 1406 1403 1401 1398 1396 1393 1390 1387 1383 1380 1376 1373 1370 1368 1365 1363 1362 1362 1361 1360 1360 1360 1360 1360 1360 1361 1361 1362 1363 1364 1366 1368 1370 1373 1376 1379 1383 1387 1391 1396 1401